{"data":{"norad_id":50479,"epoch":"2026-05-25T01:54:40.076064Z","epoch_age_seconds":76887,"freshness":"FRESH","line1":"1 50479U 21132L   26145.07963051 -.00000517  00000+0 -14937-2 0  9993","line2":"2 50479  87.8917  25.6646 0002297  84.2599 275.8790 13.11415894212575","mean_motion":13.11415894,"eccentricity":0.0002297,"inclination_deg":87.8917,"raan_deg":25.6646,"arg_perigee_deg":84.2599,"mean_anomaly_deg":275.879,"bstar":-0.0014937,"rev_number":21257,"period_min":109.80498304072,"perigee_km":1215.9419959704,"apogee_km":1219.4315174042,"semimajor_km":7595.8237566873,"source":"CELESTRAK","updated_at":"2026-05-25T13:38:22.530000Z"}}